EDT,Max TemperatureF,Mean TemperatureF,Min TemperatureF,Max Dew PointF,MeanDew PointF,Min DewpointF,Max Humidity, Mean Humidity, Min Humidity, Max Sea Level PressureIn, Mean Sea Level PressureIn, Min Sea Level PressureIn, Max VisibilityMiles, Mean VisibilityMiles, Min VisibilityMiles, Max Wind SpeedMPH, Mean Wind SpeedMPH, Max Gust SpeedMPH,PrecipitationIn, CloudCover, Events, WindDirDegrees
2014-4-1,49,39,29,38,31,21,86,72,46,30.00,29.76,29.62,10,10,5,23,13,32,0.00,8,Rain-Snow,199
2014-4-2,35,30,24,24,20,17,86,69,57,30.28,30.18,30.00,10,10,10,22,13,28,0.00,3,,284
2014-4-3,38,30,22,26,23,19,94,73,55,30.30,30.15,29.93,10,10,10,17,7,25,0.00,5,,88
2014-4-4,37,32,26,34,30,24,100,85,60,29.92,29.59,29.34,10,6,0,21,11,28,0.00,8,Rain-Snow,61
2014-4-5,34,28,21,26,21,16,94,75,51,30.15,30.05,29.73,10,10,2,22,13,29,0.00,3,Snow,273
2014-4-6,53,42,31,32,27,21,77,57,38,30.12,30.05,29.98,10,10,10,14,7,21,0.00,1,,207
2014-4-7,54,43,32,32,29,27,84,65,38,30.00,29.82,29.63,10,10,10,9,3,,0.00,2,,98
2014-4-8,48,40,32,36,31,25,97,77,58,29.91,29.73,29.60,10,9,4,13,6,17,0.00,4,Rain,300
2014-4-9,52,39,26,28,25,23,90,56,36,29.97,29.89,29.71,10,10,7,18,7,25,0.00,1,,220
2014-4-10,55,44,33,40,31,25,83,53,32,29.89,29.65,29.52,10,10,4,22,15,33,0.00,3,Rain,221
2014-4-11,54,42,31,33,27,20,86,59,25,30.04,29.98,29.89,10,10,10,12,4,17,0.00,2,,254
2014-4-12,44,38,32,40,36,32,98,88,75,30.13,30.03,29.87,10,9,3,17,6,25,0.00,6,Rain,104
2014-4-13,43,40,36,44,39,36,100,96,90,29.86,29.77,29.65,10,6,0,15,8,21,0.00,8,Fog-Rain-Snow,43
2014-4-14,36,30,24,36,29,20,100,92,78,29.96,29.70,29.44,10,6,0,23,15,38,0.00,8,Rain-Snow,343
2014-4-15,28,24,20,23,17,11,94,73,58,30.23,30.05,29.92,10,8,1,16,12,23,0.00,5,Snow,314
2014-4-16,40,26,13,32,21,12,98,80,40,30.41,30.34,30.23,10,9,1,15,4,16,0.00,4,Snow,107
2014-4-17,50,42,34,32,26,21,89,58,38,30.37,30.27,30.20,10,10,10,21,10,26,0.00,6,,147
2014-4-18,39,34,29,33,30,27,97,82,64,30.46,30.37,30.28,10,10,5,13,5,,0.00,6,,302
2014-4-19,56,41,26,31,28,24,98,65,30,30.53,30.41,30.28,10,10,7,14,5,20,0.00,0,,103
2014-4-20,54,48,41,45,35,28,79,64,45,30.28,30.19,30.07,10,10,10,12,6,17,0.00,8,Rain,151
2014-4-21,51,46,40,48,44,36,99,92,69,30.06,29.90,29.77,10,5,0,9,3,,0.00,7,Fog-Rain,64
2014-4-22,41,37,33,41,33,29,98,88,80,30.05,29.91,29.82,10,10,4,20,11,28,0.00,7,Snow,297
2014-4-23,44,37,30,30,24,15,92,65,33,30.21,30.16,30.06,10,10,10,15,6,,0.00,0,,304
2014-4-24,55,42,30,31,22,17,76,48,23,30.18,30.08,29.91,10,10,10,16,6,25,0.00,5,Rain,110
2014-4-25,45,40,36,41,32,16,99,75,33,29.92,29.79,29.72,10,9,2,13,7,17,0.00,8,Rain,114
2014-4-26,43,38,34,36,33,27,99,86,61,30.18,30.01,29.80,10,9,1,13,8,18,0.00,5,Rain-Snow,324
2014-4-27,52,41,30,28,24,18,84,52,31,30.27,30.21,30.14,10,10,10,16,6,23,0.00,1,,103
2014-4-28,54,48,42,26,23,20,51,38,27,30.18,30.05,29.92,10,10,10,26,18,33,0.00,1,,98
2014-4-29,51,46,41,48,40,25,95,79,39,29.92,29.73,29.65,10,8,1,22,15,30,0.00,8,Rain,95
2014-4-30,57,48,39,53,47,39,99,94,77,29.79,29.77,29.74,10,6,0,12,6,,0.00,7,Fog-Rain,118